[[{"header":{"parameterUnit":"m.s-1","parameterCategory":2,"la1":30.2991,"la2":30.254,"lo1":-89.0895,"lo2":-89.0444,"dy":0.0017,"dx":0.0017,"nx":28,"ny":28,"refTime":"2024-08-14T21:00:00:Z","depth":"0","parameterNumber":2,"parameterNumberName":"U-component_of_CURRENTS"},"data":[0,0,0,0,0,0,0,0,0,0,0,0,0,0,0,0,0,0,0,0,0,0,0,0,0,0,0,0,0,0,0,0,0,0,0,0,0,0,0,0,0,0,0,0,0,0,0,0,0,0,0,0,0,0,0,0,0,0,0.1053,0.1054,0,0.1045,0.1045,0.1044,0.0917,0.0914,0.0912,0.0909,0.0775,0.0774,0.0773,0,0,0,0,0,0,0,0,0,0,0,0,0,0.0964,0.0965,0.1053,0.1054,0.1054,0.1045,0.1045,0.1044,0.0918,0.0914,0.0911,0.0908,0.0775,0.0774,0.0773,0,0,0,0,0,0,0,0,0,0,0,0,0,0.0979,0.0966,0.1053,0.0993,0.0988,0.1045,0.1045,0.1044,0.0918,0.0914,0.091,0.0906,0.0776,0.0774,0.0773,0.0848,0,0,0.0769,0.0768,0,0,0,0,0,0,0,0,0.0978,0.0982,0.1002,0.0998,0.0992,0.0982,0.0964,0.0974,0.0919,0.094,0.0909,0.0904,0.0839,0.0832,0.0835,0.0842,0.0836,0.0768,0.0768,0.0767,0.0767,0,0,0,0,0,0,0,0.0977,0.0982,0.1045,0.1003,0.0997,0.0969,0.0966,0.0966,0.0907,0.0938,0.093,0.0938,0.0834,0.0837,0.083,0.0834,0.0769,0.0767,0.0766,0.0766,0.1058,0.1066,0,0,0,0,0,0,0.0994,0.0981,0.1045,0.1045,0.098,0.0974,0.0971,0.0986,0.0909,0.0896,0.0942,0.0932,0.0841,0.0832,0.0825,0.1087,0.0767,0.0766,0.0765,0.1049,0.106,0.1069,0,0,0,0,0,0,0.0992,0.1,0.1046,0.1016,0.102,0.0981,0.0998,0.0988,0.1004,0.0915,0.0897,0.097,0.0837,0.0827,0.0887,0.1073,0.0765,0.0764,0.1039,0.1052,0.1064,0.1496,0,0,0,0,0,0,0.0989,0.0999,0.1038,0.1018,0.1023,0.1145,0.1003,0.0991,0.1017,0.1005,0.0934,0.0916,0.0833,0.0891,0.0886,0.1065,0.0763,0.1028,0.1045,0.106,0.1471,0.1522,0.1566,0,0,0,0,0,0.0986,0.1073,0.104,0.1049,0.107,0.1152,0.1155,0.1105,0.1024,0.1091,0.1037,0.0919,0.099,0.0897,0.0889,0.1072,0.102,0.104,0.1059,0.145,0.1512,0.1565,0,0,0,0,0,0,0.1061,0.1068,0.1031,0.1114,0.1154,0.1133,0.1205,0.1143,0.1154,0.1143,0.101,0.0996,0.1138,0.1043,0.0941,0.1208,0.0996,0.1014,0.1296,0.1353,0.14,0.1419,0.0761,0,0,0,0,0,0.1097,0.1169,0.1161,0.1247,0.1276,0.1241,0.1268,0.1242,0.1237,0.1235,0.1189,0.1166,0.1218,0.1226,0.1248,0.1369,0.1328,0.149,0.1538,0.1579,0.1595,0.1722,0.1783,0.1133,0.1132,0.1132,0,0,0.1153,0.1172,0.121,0.127,0.1295,0.1403,0.125,0.1343,0.1436,0.1225,0.1357,0.1338,0.1291,0.1457,0.151,0.139,0.1756,0.1603,0.1639,0.1631,0.1749,0.1812,0.1868,0.1146,0.1143,0.1141,0,0,0.1339,0.1325,0.1456,0.1504,0.1572,0.1564,0.1601,0.162,0.1637,0.1752,0.1661,0.1759,0.1775,0.1827,0.1838,0.2161,0.2017,0.216,0.2403,0.2531,0.2585,0.2631,0.2713,0.2763,0.2168,0.217,0.217,0,0.1403,0.1541,0.1516,0.1657,0.1708,0.165,0.1791,0.1844,0.1881,0.1915,0.1854,0.1986,0.1979,0.2174,0.2312,0.2279,0.2277,0.2187,0.2594,0.2638,0.2678,0.2749,0.2799,0.2193,0.219,0.2188,0.2185,0,0.1691,0.1785,0.1885,0.2021,0.2084,0.2212,0.2245,0.2328,0.2317,0.2331,0.251,0.2527,0.2568,0.2651,0.2584,0.2884,0.2771,0.2654,0.2445,0.277,0.2824,0.2869,0.2226,0.2217,0.2211,0.2205,0,0,0.1891,0.204,0.2082,0.213,0.2267,0.2322,0.2526,0.2645,0.2697,0.2831,0.2926,0.3156,0.3094,0.3109,0.3072,0.3224,0.3573,0.3078,0.3074,0.3154,0.3827,0.3713,0.3746,0.3508,0.3517,0.3525,0.3768,0,0.2125,0.2358,0.2404,0.2619,0.2719,0.2718,0.2865,0.2958,0.2996,0.3084,0.3192,0.3273,0.3285,0.3286,0.3485,0.3488,0.3699,0.3515,0.3501,0.3501,0.3357,0.3799,0.3725,0.3932,0.3809,0.3816,0.3821,0,0.2426,0.2508,0.2713,0.2793,0.2839,0.2943,0.3041,0.3158,0.3286,0.3313,0.3452,0.3445,0.3708,0.3628,0.3955,0.3814,0.3905,0.3945,0.3951,0.3711,0.347,0.3578,0.4013,0.3963,0.3886,0.3881,0.3877,0,0.252,0.2734,0.2848,0.2897,0.3002,0.3062,0.3112,0.3218,0.3263,0.3409,0.3431,0.3691,0.375,0.3974,0.4084,0.403,0.4371,0.4272,0.4293,0.428,0.4148,0.4109,0.4522,0.4596,0.4596,0.4595,0.4594,0,0.2727,0.2825,0.2868,0.2917,0.3002,0.3071,0.3143,0.3217,0.3307,0.3362,0.3506,0.3586,0.384,0.4012,0.4163,0.4362,0.4453,0.4446,0.4392,0.4299,0.4272,0.4146,0.4099,0.4604,0.4602,0.46,0.4599,0,0.2792,0.286,0.2944,0.3015,0.3029,0.3055,0.3092,0.3131,0.3227,0.3298,0.3347,0.3551,0.3781,0.4001,0.4303,0.4406,0.454,0.4653,0.4504,0.4432,0.439,0.4366,0.446,0.4372,0.4781,0.478,0.478,0,0.2835,0.2882,0.2924,0.2923,0.2935,0.2967,0.2982,0.3073,0.3103,0.3263,0.3301,0.3525,0.3674,0.4059,0.4309,0.4603,0.4514,0.4665,0.4609,0.4497,0.4433,0.4211,0.4113,0.4631,0.4629,0.4628,0.4627,0,0.2836,0.283,0.2851,0.285,0.285,0.2854,0.2884,0.2899,0.3013,0.3081,0.3189,0.3315,0.369,0.3951,0.43,0.4478,0.4496,0.4642,0.4618,0.4483,0.4184,0.4027,0.4307,0.4615,0.4616,0.4617,0.4618,0.4618,0.2771,0.2761,0.2763,0.2754,0.2748,0.2729,0.2703,0.2757,0.2787,0.2882,0.3047,0.3216,0.3661,0.4149,0.4269,0.4491,0.4422,0.4516,0.4541,0.4355,0.4171,0.4402,0.4557,0.4558,0.4558,0.4559,0.4559,0,0.2689,0.2683,0.2668,0.2638,0.2586,0.2626,0.2625,0.2598,0.2596,0.2759,0.2854,0.3278,0.3634,0.3999,0.443,0.444,0.4274,0.4389,0.4145,0.4089,0.443,0.4321,0.4319,0.4319,0.4319,0.4319,0.4319,0.4319,0.264,0.2604,0.26,0.2487,0.2457,0.2373,0.2354,0.2345,0.2433,0.2565,0.2764,0.2978,0.3518,0.4173,0.4426,0.4387,0.4196,0.4039,0.4003,0.4336,0.4349,0.4361,0.4255,0.4239,0.4239,0.3513,0.3509,0.3506]},{"header":{"parameterUnit":"m.s-1","parameterCategory":2,"la1":30.2991,"la2":30.254,"lo1":-89.0895,"lo2":-89.0444,"dy":0.0017,"dx":0.0017,"nx":28,"ny":28,"refTime":"2024-08-14T21:00:00:Z","depth":"0","parameterNumber":3,"parameterNumberName":"V-component_of_CURRENTS"},"data":[0,0,0,0,0,0,0,0,0,0,0,0,0,0,0,0,0,0,0,0,0,0,0,0,0,0,0,0,0,0,0,0,0,0,0,0,0,0,0,0,0,0,0,0,0,0,0,0,0,0,0,0,0,0,0,0,0,0,-0.0282,-0.0282,0,-0.0311,-0.0312,-0.0312,-0.0419,-0.0421,-0.0423,-0.0425,-0.0574,-0.0576,-0.0578,0,0,0,0,0,0,0,0,0,0,0,0,0,-0.0349,-0.0347,-0.0282,-0.0282,-0.0282,-0.0311,-0.0312,-0.0312,-0.0419,-0.0422,-0.0424,-0.0426,-0.0573,-0.0575,-0.0578,0,0,0,0,0,0,0,0,0,0,0,0,0,-0.0347,-0.0347,-0.0282,-0.0336,-0.034,-0.0311,-0.0312,-0.0313,-0.0419,-0.0422,-0.0425,-0.0427,-0.0572,-0.0575,-0.0578,-0.0536,0,0,-0.0588,-0.0589,0,0,0,0,0,0,0,0,-0.0347,-0.0345,-0.0328,-0.0332,-0.0337,-0.0361,-0.0389,-0.0392,-0.0418,-0.0394,-0.0425,-0.0429,-0.0508,-0.0517,-0.052,-0.0543,-0.0549,-0.0588,-0.059,-0.0591,-0.0592,0,0,0,0,0,0,0,-0.0347,-0.0345,-0.0298,-0.0327,-0.0333,-0.0368,-0.0371,-0.039,-0.0439,-0.0396,-0.0403,-0.0398,-0.0513,-0.0517,-0.0525,-0.0551,-0.0588,-0.059,-0.0592,-0.0594,-0.0517,-0.0513,0,0,0,0,0,0,-0.0329,-0.0344,-0.0297,-0.0299,-0.0345,-0.0363,-0.0367,-0.0354,-0.0437,-0.045,-0.0395,-0.0402,-0.051,-0.0521,-0.053,-0.0411,-0.0591,-0.0594,-0.0596,-0.052,-0.0516,-0.0511,0,0,0,0,0,0,-0.033,-0.0324,-0.0296,-0.032,-0.0318,-0.0358,-0.0343,-0.0353,-0.0353,-0.0434,-0.0451,-0.0385,-0.0513,-0.0526,-0.0524,-0.0421,-0.0595,-0.0598,-0.0525,-0.0519,-0.0514,-0.022,0,0,0,0,0,0,-0.0332,-0.0324,-0.0299,-0.0317,-0.0316,-0.0232,-0.0339,-0.0351,-0.0343,-0.0354,-0.043,-0.0447,-0.0516,-0.0518,-0.0527,-0.0428,-0.06,-0.053,-0.0522,-0.0515,-0.0235,-0.0205,-0.018,0,0,0,0,0,-0.0334,-0.0258,-0.0297,-0.0291,-0.0282,-0.0227,-0.0227,-0.0273,-0.0339,-0.0295,-0.0366,-0.0445,-0.0478,-0.0517,-0.0528,-0.0428,-0.0533,-0.0524,-0.0516,-0.0247,-0.0211,-0.018,0,0,0,0,0,0,-0.0277,-0.0263,-0.0305,-0.0235,-0.0221,-0.0243,-0.0191,-0.025,-0.027,-0.0283,-0.0398,-0.0416,-0.0375,-0.0444,-0.0485,-0.0387,-0.0516,-0.0509,-0.0308,-0.0275,-0.0248,-0.0159,-0.0603,0,0,0,0,0,-0.0252,-0.0183,-0.0201,-0.0135,-0.0118,-0.0161,-0.0147,-0.0176,-0.02,-0.0213,-0.0271,-0.0326,-0.0343,-0.0346,-0.0376,-0.0317,-0.0361,-0.0262,-0.0234,-0.021,-0.0145,-0.0143,-0.0108,-0.0483,-0.0483,-0.0483,0,0,-0.0204,-0.019,-0.0151,-0.0116,-0.0108,-0.0026,-0.0158,-0.0097,-0.0035,-0.0223,-0.0151,-0.0232,-0.031,-0.0246,-0.0232,-0.0291,-0.0124,-0.0199,-0.0177,-0.0124,-0.013,-0.0093,-0.0061,-0.0477,-0.0478,-0.0479,0,0,-0.0035,-0.0063,0.0062,0.0085,0.0119,0.0097,0.012,0.0112,0.0104,0.0153,0.0033,0.0036,-0.0005,-0.0012,-0.0032,0.0137,0.0014,0.0097,0.0325,0.0326,0.0358,0.0385,0.0391,0.0416,0.0121,0.0122,0.0122,0,0.0016,0.0141,0.0108,0.0225,0.0257,0.0166,0.0284,0.0295,0.0282,0.0293,0.0221,0.0197,0.0136,0.0216,0.0278,0.0212,0.0166,0.0206,0.0367,0.0392,0.0415,0.0414,0.0438,0.0137,0.0135,0.0134,0.0132,0,0.0284,0.0357,0.044,0.0544,0.0581,0.0671,0.0661,0.0695,0.0647,0.0627,0.0678,0.0599,0.0577,0.0567,0.0483,0.0615,0.0515,0.0394,0.0291,0.0472,0.0457,0.0477,0.0159,0.0153,0.0149,0.0145,0,0,0.0465,0.0596,0.0621,0.0668,0.0737,0.078,0.0912,0.0973,0.1015,0.1025,0.1092,0.1111,0.1017,0.0993,0.0878,0.091,0.1041,0.0744,0.0737,0.0769,0.104,0.0947,0.0957,0.0917,0.0922,0.0926,0.097,0,0.0673,0.0887,0.0918,0.1097,0.1183,0.1142,0.1246,0.1281,0.1267,0.131,0.1277,0.128,0.119,0.1148,0.1194,0.104,0.1104,0.1042,0.0846,0.0842,0.0752,0.0983,0.0928,0.0959,0.0988,0.0991,0.0994,0,0.0935,0.1016,0.1208,0.1286,0.1324,0.141,0.1474,0.1555,0.1601,0.1591,0.1627,0.1537,0.161,0.1464,0.1452,0.1394,0.1291,0.1194,0.1189,0.1025,0.0789,0.0778,0.0992,0.0707,0.1023,0.102,0.1018,0,0.1023,0.1216,0.1337,0.1375,0.1472,0.1534,0.1576,0.1631,0.167,0.174,0.175,0.18,0.1767,0.1717,0.155,0.1487,0.1494,0.1353,0.1207,0.1196,0.1083,0.1054,0.1022,0.1405,0.1405,0.1405,0.1405,0,0.1197,0.1291,0.137,0.1422,0.1528,0.1589,0.1685,0.173,0.1803,0.1857,0.1867,0.1901,0.1818,0.1778,0.1652,0.1517,0.158,0.1337,0.1237,0.1181,0.1162,0.0844,0.0681,0.1406,0.1406,0.1406,0.1405,0,0.124,0.1323,0.1427,0.1527,0.1559,0.1607,0.1697,0.176,0.1836,0.1908,0.1932,0.1979,0.1954,0.1864,0.1751,0.1606,0.133,0.1416,0.1368,0.1266,0.0854,0.0709,0.0667,0.0487,0.1305,0.1304,0.1303,0,0.1267,0.1332,0.1429,0.1465,0.1496,0.1579,0.1634,0.1743,0.1808,0.1938,0.1976,0.2005,0.204,0.1896,0.168,0.1524,0.1278,0.1301,0.1208,0.0916,0.068,0.0622,0.0469,0.1173,0.1171,0.1169,0.1168,0,0.1253,0.128,0.1332,0.1413,0.1473,0.1562,0.1658,0.172,0.1857,0.1941,0.2049,0.2105,0.2006,0.1866,0.1644,0.1475,0.1073,0.1254,0.0973,0.0646,0.0566,0.0312,0.1046,0.1152,0.1153,0.1154,0.1155,0.1156,0.118,0.1201,0.1272,0.1345,0.1429,0.1551,0.1626,0.1747,0.1874,0.2049,0.2099,0.2241,0.2059,0.1783,0.1447,0.0867,0.0925,0.0686,0.0561,0.0553,0.0324,0.1041,0.0996,0.0997,0.0998,0.0998,0.0999,0,0.1093,0.1148,0.1209,0.1319,0.1412,0.1487,0.165,0.1754,0.1901,0.2103,0.2234,0.2354,0.191,0.15,0.0791,0.0289,0.0098,0.002,-0.0085,-0.0198,0.046,0.039,0.0185,0.0185,0.0185,0.0186,0.0186,0.0186,0.1047,0.1088,0.1149,0.1281,0.1375,0.1524,0.1627,0.1794,0.1982,0.2287,0.2513,0.271,0.2556,0.1103,0.0001,-0.0328,-0.075,-0.0756,-0.0968,-0.0565,-0.0513,-0.0464,-0.0567,-0.0969,-0.097,-0.1586,-0.1592,-0.1597]}],[{"header":{"parameterUnit":"m.s-1","parameterCategory":2,"la1":30.2991,"la2":30.254,"lo1":-89.0895,"lo2":-89.0444,"dy":0.0017,"dx":0.0017,"nx":28,"ny":28,"refTime":"2024-08-14T21:00:00:Z","depth":"2","parameterNumber":2,"parameterNumberName":"U-component_of_CURRENTS"},"data":[0,0,0,0,0,0,0,0,0,0,0,0,0,0,0,0,0,0,0,0,0,0,0,0,0,0,0,0,0,0,0,0,0,0,0,0,0,0,0,0,0,0,0,0,0,0,0,0,0,0,0,0,0,0,0,0,0,0,0.1204,0.1205,0,0.1248,0.1248,0.1248,0.1257,0.1256,0.1256,0.1256,0.1277,0.1278,0.1279,0,0,0,0,0,0,0,0,0,0,0,0,0,0.1151,0.1152,0.1204,0.1205,0.1205,0.1247,0.1248,0.1249,0.1257,0.1256,0.1256,0.1256,0.1277,0.1278,0.1279,0,0,0,0,0,0,0,0,0,0,0,0,0,0.1182,0.1152,0.1204,0.1215,0.1216,0.1247,0.1248,0.1249,0.1257,0.1256,0.1256,0.1255,0.1277,0.1278,0.1279,0.1296,0,0,0.1283,0.1284,0,0,0,0,0,0,0,0,0.118,0.1184,0.1213,0.1214,0.1216,0.1247,0.1237,0.1264,0.1257,0.1241,0.1256,0.1255,0.1266,0.1268,0.1277,0.1297,0.1298,0.1283,0.1284,0.1285,0.1285,0,0,0,0,0,0,0,0.1178,0.1182,0.1221,0.1213,0.1215,0.1225,0.1229,0.1243,0.1254,0.1242,0.1243,0.1249,0.1266,0.1275,0.1277,0.1298,0.1283,0.1284,0.1285,0.1286,0.1406,0.1408,0,0,0,0,0,0,0.1173,0.118,0.1219,0.1222,0.1197,0.1227,0.1231,0.1237,0.1255,0.1258,0.1249,0.1249,0.1273,0.1276,0.1278,0.1362,0.1285,0.1286,0.1286,0.1404,0.1407,0.1409,0,0,0,0,0,0,0.1172,0.1176,0.1218,0.1202,0.1208,0.1228,0.1235,0.1238,0.1249,0.126,0.1262,0.1257,0.1273,0.1276,0.1313,0.136,0.1286,0.1288,0.1401,0.1404,0.1408,0.149,0,0,0,0,0,0,0.117,0.1176,0.1177,0.1202,0.1209,0.1239,0.1235,0.1239,0.1254,0.1254,0.1268,0.127,0.1273,0.1311,0.1314,0.1361,0.1289,0.1398,0.1402,0.1407,0.1484,0.1496,0.1506,0,0,0,0,0,0.1168,0.1173,0.1177,0.1182,0.1211,0.124,0.1245,0.1256,0.1254,0.1264,0.1287,0.1269,0.1343,0.1314,0.1317,0.1365,0.1395,0.1401,0.1406,0.1479,0.1493,0.1506,0,0,0,0,0,0,0.1153,0.1176,0.118,0.1192,0.1215,0.1241,0.1251,0.1259,0.1285,0.1287,0.1294,0.1298,0.1353,0.1347,0.1315,0.1415,0.1369,0.1375,0.1423,0.1437,0.1447,0.1444,0.129,0,0,0,0,0,0.115,0.116,0.1185,0.1196,0.1207,0.123,0.1242,0.1253,0.1279,0.1289,0.1305,0.1333,0.1379,0.1395,0.1422,0.1468,0.1455,0.1504,0.1514,0.1524,0.1525,0.1568,0.1583,0.1427,0.1427,0.1427,0,0,0.1147,0.1162,0.1167,0.1194,0.1211,0.1243,0.1236,0.126,0.1296,0.1288,0.1339,0.1367,0.14,0.1463,0.1487,0.1462,0.1558,0.1531,0.1538,0.1535,0.1575,0.159,0.1604,0.1431,0.143,0.143,0,0,0.1157,0.1161,0.1177,0.12,0.123,0.1249,0.1257,0.1291,0.1313,0.1367,0.1386,0.1439,0.1488,0.1532,0.156,0.1644,0.1615,0.1658,0.1711,0.1754,0.1766,0.1777,0.1762,0.1771,0.1664,0.1664,0.1664,0,0.1151,0.118,0.1187,0.1217,0.1241,0.1255,0.129,0.1321,0.1366,0.1397,0.1391,0.1505,0.1526,0.1624,0.1666,0.1668,0.1669,0.1657,0.1767,0.1777,0.1787,0.1769,0.1778,0.1668,0.1668,0.1667,0.1667,0,0.1183,0.1207,0.1221,0.1264,0.129,0.132,0.1364,0.1397,0.1426,0.1462,0.1552,0.1597,0.1663,0.1693,0.1711,0.1809,0.1777,0.1774,0.1729,0.1808,0.1783,0.1791,0.1675,0.1673,0.1672,0.1671,0,0,0.1167,0.1229,0.1236,0.1264,0.1317,0.1342,0.1408,0.1472,0.1517,0.1576,0.1644,0.1747,0.1767,0.1801,0.1833,0.1879,0.195,0.1867,0.1867,0.1841,0.2012,0.1968,0.1971,0.1976,0.1978,0.198,0.1958,0,0.119,0.1248,0.128,0.1341,0.1373,0.1414,0.1473,0.1534,0.1585,0.1651,0.1719,0.1793,0.1811,0.1853,0.191,0.1943,0.1979,0.1953,0.1947,0.1945,0.189,0.1983,0.1882,0.1855,0.1966,0.1967,0.1968,0,0.1211,0.125,0.1305,0.1381,0.1399,0.1438,0.1523,0.1582,0.1677,0.1721,0.1805,0.1847,0.1944,0.1937,0.2028,0.2015,0.2026,0.2036,0.2036,0.1972,0.1918,0.1799,0.1864,0.198,0.1979,0.1978,0.1977,0,0.1185,0.1268,0.1308,0.1333,0.1418,0.1455,0.1508,0.1598,0.165,0.1762,0.1806,0.1913,0.1968,0.2018,0.2061,0.2052,0.213,0.2108,0.2068,0.2061,0.1961,0.1943,0.2167,0.2167,0.2167,0.2167,0.2167,0,0.1187,0.1221,0.1296,0.1315,0.1367,0.1442,0.1503,0.1575,0.1672,0.1736,0.1838,0.1909,0.2001,0.2057,0.2076,0.21,0.2142,0.209,0.2074,0.1985,0.197,0.2067,0.2056,0.2166,0.2166,0.2166,0.2167,0,0.1137,0.1189,0.1233,0.132,0.1345,0.1381,0.1476,0.1526,0.1634,0.1718,0.1758,0.191,0.2002,0.2058,0.2131,0.2112,0.2134,0.2126,0.199,0.196,0.2018,0.2011,0.2064,0.2063,0.2062,0.2061,0.206,0,0.1111,0.1127,0.1204,0.1221,0.1254,0.1316,0.1357,0.148,0.1538,0.1716,0.1756,0.1891,0.1965,0.2048,0.2082,0.209,0.2127,0.1965,0.1942,0.2039,0.2018,0.2013,0.2008,0.1822,0.1819,0.1817,0.1815,0,0.1052,0.1075,0.1105,0.1145,0.1181,0.1235,0.1313,0.1353,0.1508,0.1593,0.1734,0.1808,0.1931,0.1947,0.1972,0.1953,0.1958,0.192,0.2088,0.1871,0.1811,0.179,0.1793,0.1796,0.1798,0.18,0.1801,0.1801,0.0987,0.0992,0.1028,0.1066,0.1107,0.1162,0.1196,0.1296,0.1387,0.1515,0.1625,0.1706,0.179,0.18,0.1778,0.1772,0.1874,0.1793,0.1799,0.1808,0.1792,0.1735,0.1698,0.17,0.1701,0.1702,0.1703,0,0.091,0.0933,0.0956,0.1004,0.1031,0.1087,0.117,0.121,0.1303,0.1419,0.1511,0.1449,0.1501,0.1583,0.1574,0.1572,0.1541,0.1497,0.1474,0.1496,0.1514,0.1482,0.1307,0.1305,0.1304,0.1302,0,0,0.0867,0.0868,0.0895,0.0921,0.0962,0.0997,0.1041,0.1115,0.1205,0.1232,0.1275,0.1405,0.1536,0.1399,0.141,0.1373,0.1406,0.1311,0.1638,0.1635,0.165,0.1706,0.1684,0,0,0,0,0]},{"header":{"parameterUnit":"m.s-1","parameterCategory":2,"la1":30.2991,"la2":30.254,"lo1":-89.0895,"lo2":-89.0444,"dy":0.0017,"dx":0.0017,"nx":28,"ny":28,"refTime":"2024-08-14T21:00:00:Z","depth":"2","parameterNumber":3,"parameterNumberName":"V-component_of_CURRENTS"},"data":[0,0,0,0,0,0,0,0,0,0,0,0,0,0,0,0,0,0,0,0,0,0,0,0,0,0,0,0,0,0,0,0,0,0,0,0,0,0,0,0,0,0,0,0,0,0,0,0,0,0,0,0,0,0,0,0,0,0,-0.0326,-0.0326,0,-0.0342,-0.0342,-0.0343,-0.0354,-0.0354,-0.0354,-0.0354,-0.0374,-0.0375,-0.0376,0,0,0,0,0,0,0,0,0,0,0,0,0,-0.0332,-0.0332,-0.0326,-0.0326,-0.0327,-0.0342,-0.0342,-0.0343,-0.0354,-0.0354,-0.0354,-0.0354,-0.0374,-0.0375,-0.0376,0,0,0,0,0,0,0,0,0,0,0,0,0,-0.0338,-0.0332,-0.0326,-0.0333,-0.0334,-0.0342,-0.0342,-0.0343,-0.0354,-0.0354,-0.0354,-0.0354,-0.0374,-0.0375,-0.0376,-0.0381,0,0,-0.0378,-0.0379,0,0,0,0,0,0,0,0,-0.0337,-0.0338,-0.0332,-0.0333,-0.0334,-0.0345,-0.0352,-0.0355,-0.0354,-0.0347,-0.0354,-0.0354,-0.0364,-0.0366,-0.037,-0.0382,-0.0383,-0.0378,-0.0379,-0.0379,-0.0379,0,0,0,0,0,0,0,-0.0337,-0.0337,-0.0334,-0.0332,-0.0333,-0.0344,-0.0345,-0.0353,-0.0357,-0.0348,-0.0349,-0.0349,-0.0365,-0.037,-0.0371,-0.0383,-0.0378,-0.0379,-0.038,-0.038,-0.0379,-0.0379,0,0,0,0,0,0,-0.0331,-0.0337,-0.0333,-0.0334,-0.0334,-0.0344,-0.0345,-0.0342,-0.0357,-0.0358,-0.0349,-0.0349,-0.0368,-0.037,-0.0372,-0.0375,-0.0379,-0.038,-0.038,-0.038,-0.0379,-0.0379,0,0,0,0,0,0,-0.0331,-0.0331,-0.0333,-0.0335,-0.0336,-0.0344,-0.0341,-0.0343,-0.0342,-0.0357,-0.0359,-0.0345,-0.0368,-0.0371,-0.0372,-0.0376,-0.038,-0.0381,-0.038,-0.038,-0.0379,-0.0385,0,0,0,0,0,0,-0.0331,-0.0331,-0.0329,-0.0335,-0.0336,-0.033,-0.0341,-0.0343,-0.0342,-0.0342,-0.0355,-0.0357,-0.0368,-0.037,-0.0373,-0.0378,-0.0382,-0.0381,-0.038,-0.0379,-0.0385,-0.0384,-0.0384,0,0,0,0,0,-0.0332,-0.0325,-0.0329,-0.0329,-0.0332,-0.033,-0.0331,-0.0338,-0.0341,-0.0338,-0.0346,-0.0356,-0.0366,-0.0371,-0.0373,-0.0379,-0.0382,-0.038,-0.0379,-0.0386,-0.0385,-0.0384,0,0,0,0,0,0,-0.0325,-0.0326,-0.033,-0.0324,-0.0325,-0.0331,-0.0331,-0.0333,-0.0338,-0.0338,-0.0352,-0.0355,-0.0359,-0.0361,-0.0366,-0.0373,-0.0374,-0.0374,-0.0378,-0.0377,-0.0376,-0.0376,-0.0382,0,0,0,0,0,-0.0323,-0.0321,-0.0322,-0.0318,-0.0317,-0.0323,-0.0324,-0.0325,-0.0329,-0.0331,-0.0337,-0.0344,-0.0357,-0.036,-0.0367,-0.037,-0.0393,-0.0373,-0.0372,-0.0371,-0.0371,-0.0419,-0.0424,-0.0375,-0.0375,-0.0375,0,0,-0.0321,-0.0321,-0.032,-0.0317,-0.032,-0.0316,-0.0324,-0.0319,-0.0318,-0.0333,-0.033,-0.0342,-0.0356,-0.0363,-0.0365,-0.0366,-0.0394,-0.037,-0.037,-0.037,-0.0419,-0.0424,-0.0429,-0.0374,-0.0374,-0.0374,0,0,-0.031,-0.0313,-0.0305,-0.0305,-0.0303,-0.0308,-0.0303,-0.0303,-0.0305,-0.0303,-0.0318,-0.0332,-0.0335,-0.0356,-0.0367,-0.0362,-0.0389,-0.0358,-0.0356,-0.0403,-0.0409,-0.0413,-0.0442,-0.045,-0.0357,-0.0357,-0.0357,0,-0.0308,-0.0295,-0.0303,-0.0295,-0.0292,-0.0301,-0.029,-0.0298,-0.0296,-0.0298,-0.0298,-0.0321,-0.0337,-0.0362,-0.0363,-0.0364,-0.0387,-0.0364,-0.0405,-0.041,-0.0415,-0.0444,-0.0452,-0.0357,-0.0357,-0.0357,-0.0357,0,-0.0288,-0.028,-0.0275,-0.0271,-0.0271,-0.0261,-0.027,-0.0269,-0.0271,-0.0279,-0.0291,-0.0316,-0.0326,-0.034,-0.0354,-0.039,-0.0394,-0.0403,-0.0414,-0.0421,-0.045,-0.0459,-0.0357,-0.0357,-0.0357,-0.0357,0,0,-0.0274,-0.0262,-0.0261,-0.0246,-0.0253,-0.0243,-0.0252,-0.0253,-0.0247,-0.0266,-0.0264,-0.0306,-0.0316,-0.0328,-0.035,-0.0397,-0.0456,-0.0413,-0.0415,-0.0452,-0.0551,-0.0549,-0.0558,-0.0478,-0.048,-0.0481,-0.0556,0,-0.0253,-0.0222,-0.023,-0.0206,-0.0188,-0.0206,-0.0206,-0.0215,-0.0224,-0.0225,-0.0271,-0.0271,-0.0313,-0.0308,-0.037,-0.0423,-0.0479,-0.0434,-0.0529,-0.0531,-0.0538,-0.0568,-0.0529,-0.0593,-0.0564,-0.0566,-0.0567,0,-0.0227,-0.0207,-0.0172,-0.0153,-0.0148,-0.0138,-0.0132,-0.0133,-0.016,-0.0166,-0.0199,-0.022,-0.0278,-0.0308,-0.0435,-0.0403,-0.048,-0.0536,-0.054,-0.0543,-0.0546,-0.0581,-0.0609,-0.0581,-0.058,-0.0579,-0.0578,0,-0.019,-0.0166,-0.0129,-0.0124,-0.011,-0.0096,-0.0091,-0.0108,-0.0096,-0.0119,-0.0107,-0.0188,-0.02,-0.032,-0.0428,-0.0433,-0.057,-0.0588,-0.0666,-0.0666,-0.0653,-0.0649,-0.0699,-0.0699,-0.0699,-0.0699,-0.0698,0,-0.0156,-0.0127,-0.01,-0.0077,-0.003,-0.0043,-0.0004,-0.0014,-0.0019,-0.0,-0.0062,-0.0065,-0.0205,-0.0291,-0.0416,-0.0558,-0.0564,-0.0674,-0.0693,-0.0651,-0.0646,-0.0649,-0.0642,-0.0701,-0.0701,-0.07,-0.07,0,-0.0117,-0.0103,-0.0054,-0.0022,-0.0005,0.0032,0.0067,0.009,0.0079,0.0101,0.0105,0.0031,-0.0081,-0.0228,-0.0408,-0.052,-0.0665,-0.0719,-0.0648,-0.0658,-0.0734,-0.0726,-0.0818,-0.0819,-0.0819,-0.082,-0.082,0,-0.009,-0.0058,0.0,0.004,0.0062,0.0113,0.0146,0.0145,0.0166,0.0157,0.0171,0.009,0.0018,-0.0233,-0.0428,-0.0639,-0.0675,-0.0741,-0.0756,-0.0741,-0.075,-0.0742,-0.0733,-0.0738,-0.0738,-0.0738,-0.0738,0,-0.0036,-0.0014,0.0027,0.0109,0.0162,0.0211,0.0256,0.0282,0.0277,0.029,0.0277,0.0224,0.0011,-0.0186,-0.0451,-0.0595,-0.0703,-0.0744,-0.076,-0.0708,-0.0671,-0.0678,-0.0672,-0.0736,-0.0736,-0.0736,-0.0736,-0.0736,0.0008,0.0048,0.0108,0.0184,0.0248,0.03,0.0341,0.037,0.0401,0.0416,0.0348,0.0297,0.008,-0.0243,-0.0464,-0.0674,-0.0702,-0.0781,-0.078,-0.078,-0.0751,-0.0717,-0.0784,-0.0784,-0.0785,-0.0785,-0.0785,0,0.0064,0.0111,0.0181,0.0263,0.0336,0.0365,0.0415,0.044,0.048,0.0491,0.047,0.0284,0.0054,-0.0168,-0.0474,-0.0693,-0.0702,-0.075,-0.0712,-0.0714,-0.0716,-0.0682,-0.0698,-0.0698,-0.0698,-0.0698,0,0,0.0096,0.0168,0.0199,0.0324,0.0399,0.0489,0.0524,0.0546,0.0563,0.0561,0.0554,0.0452,0.0158,-0.0037,-0.0334,-0.0499,-0.0551,-0.0533,-0.0587,-0.0511,-0.0508,-0.0726,-0.0675,0,0,0,0,0]}],[{"header":{"parameterUnit":"m.s-1","parameterCategory":2,"la1":30.2991,"la2":30.254,"lo1":-89.0895,"lo2":-89.0444,"dy":0.0017,"dx":0.0017,"nx":28,"ny":28,"refTime":"2024-08-14T21:00:00:Z","depth":"4","parameterNumber":2,"parameterNumberName":"U-component_of_CURRENTS"},"data":[0,0,0,0,0,0,0,0,0,0,0,0,0,0,0,0,0,0,0,0,0,0,0,0,0,0,0,0,0,0,0,0,0,0,0,0,0,0,0,0,0,0,0,0,0,0,0,0,0,0,0,0,0,0,0,0,0,0,0.0653,0.0654,0,0.0705,0.0705,0.0706,0.0747,0.0748,0.0748,0.0749,0.0842,0.0843,0.0845,0,0,0,0,0,0,0,0,0,0,0,0,0,0.0574,0.0575,0.0653,0.0654,0.0655,0.0705,0.0705,0.0706,0.0747,0.0748,0.0749,0.0749,0.0841,0.0843,0.0845,0,0,0,0,0,0,0,0,0,0,0,0,0,0.0613,0.0576,0.0653,0.0683,0.0687,0.0705,0.0705,0.0706,0.0747,0.0748,0.0749,0.075,0.084,0.0843,0.0846,0.0843,0,0,0.0854,0.0855,0,0,0,0,0,0,0,0,0.0611,0.0615,0.0678,0.0681,0.0685,0.0723,0.0712,0.0755,0.0747,0.0721,0.0749,0.075,0.0807,0.0812,0.0815,0.0847,0.0851,0.0854,0.0856,0.0857,0.0858,0,0,0,0,0,0,0,0.0608,0.0613,0.0671,0.0679,0.0683,0.069,0.0696,0.072,0.0756,0.0723,0.0727,0.0737,0.0809,0.0813,0.0818,0.0852,0.0854,0.0857,0.0859,0.086,0.0916,0.0915,0,0,0,0,0,0,0.0607,0.0611,0.0669,0.0672,0.0653,0.0691,0.0698,0.0708,0.0755,0.0764,0.0736,0.0739,0.0807,0.0815,0.0822,0.0874,0.0857,0.086,0.0861,0.0916,0.0916,0.0915,0,0,0,0,0,0,0.0605,0.0612,0.0667,0.0645,0.0653,0.0691,0.0702,0.0708,0.0734,0.0765,0.0774,0.0758,0.0808,0.0818,0.0854,0.0876,0.0861,0.0864,0.0916,0.0916,0.0915,0.0946,0,0,0,0,0,0,0.0603,0.0611,0.0621,0.0645,0.0654,0.0687,0.0701,0.0709,0.0738,0.0743,0.0787,0.0795,0.081,0.0849,0.0856,0.088,0.0866,0.0916,0.0916,0.0916,0.0945,0.0946,0.0948,0,0,0,0,0,0.0599,0.0611,0.0621,0.0629,0.0667,0.0688,0.0693,0.0721,0.0739,0.0748,0.0777,0.0795,0.0852,0.0852,0.086,0.0885,0.0916,0.0916,0.0916,0.0944,0.0946,0.0948,0,0,0,0,0,0,0.0586,0.0618,0.0629,0.0651,0.0672,0.0696,0.0711,0.073,0.0759,0.0772,0.0798,0.0808,0.0847,0.0853,0.0852,0.0895,0.0885,0.0886,0.0904,0.0906,0.0907,0.0906,0.0868,0,0,0,0,0,0.0586,0.0607,0.0631,0.0652,0.066,0.0688,0.0703,0.0725,0.0752,0.0766,0.08,0.0826,0.0846,0.0867,0.0886,0.0914,0.0912,0.0931,0.0932,0.0934,0.0935,0.0933,0.0935,0.0914,0.0914,0.0914,0,0,0.0588,0.061,0.0622,0.0651,0.0669,0.0687,0.07,0.073,0.0755,0.0772,0.0821,0.0838,0.0853,0.0884,0.0901,0.0898,0.094,0.0933,0.0935,0.0935,0.0933,0.0935,0.0937,0.0914,0.0914,0.0914,0,0,0.06,0.0619,0.0637,0.0653,0.0686,0.07,0.0713,0.0748,0.0773,0.0812,0.0828,0.0851,0.0896,0.0904,0.0913,0.093,0.0946,0.0944,0.096,0.0958,0.096,0.0962,0.0972,0.0975,0.0947,0.0947,0.0947,0,0.0599,0.0628,0.0645,0.0664,0.0682,0.0708,0.0728,0.0751,0.08,0.082,0.0833,0.0883,0.09,0.0923,0.0932,0.0936,0.0944,0.0957,0.0962,0.0963,0.0964,0.0975,0.0977,0.0949,0.0948,0.0948,0.0948,0,0.062,0.0646,0.0658,0.069,0.0708,0.0732,0.076,0.079,0.0823,0.0849,0.089,0.0905,0.0936,0.0941,0.0949,0.0969,0.0977,0.0964,0.0961,0.0969,0.0979,0.0981,0.0951,0.095,0.095,0.0949,0,0,0.0605,0.0661,0.0667,0.0689,0.0725,0.0743,0.0778,0.0814,0.0844,0.0884,0.0919,0.0945,0.0964,0.0972,0.0982,0.0981,0.1002,0.0987,0.0986,0.1005,0.1018,0.1011,0.1013,0.1,0.1,0.1,0.1026,0,0.0616,0.0662,0.0686,0.0726,0.0746,0.0774,0.0804,0.0842,0.0876,0.0917,0.0932,0.0972,0.0973,0.0998,0.0998,0.1005,0.1007,0.0997,0.1001,0.1001,0.1,0.1014,0.1001,0.1028,0.1028,0.1028,0.1029,0,0.062,0.0655,0.0698,0.0749,0.076,0.079,0.0838,0.0871,0.0919,0.0947,0.0981,0.1005,0.103,0.1019,0.1033,0.1035,0.1033,0.1025,0.1025,0.1008,0.0997,0.1014,0.1032,0.1032,0.1031,0.1031,0.1031,0,0.0599,0.0658,0.0698,0.0715,0.0774,0.0804,0.0839,0.0888,0.0921,0.0977,0.1006,0.1035,0.1065,0.1059,0.1073,0.106,0.1078,0.1051,0.1037,0.1037,0.1023,0.1021,0.1046,0.1046,0.1046,0.1046,0.1045,0,0.059,0.0621,0.0699,0.072,0.0767,0.081,0.0861,0.0897,0.0953,0.0992,0.1032,0.1059,0.1078,0.1099,0.1088,0.1085,0.1095,0.1045,0.1042,0.1036,0.1035,0.1025,0.1023,0.1046,0.1046,0.1046,0.1046,0,0.0555,0.0607,0.0653,0.0731,0.0759,0.0795,0.0876,0.0906,0.0967,0.1016,0.1041,0.1095,0.113,0.1143,0.1144,0.1112,0.1099,0.1092,0.111,0.1106,0.1053,0.1051,0.1067,0.1067,0.1067,0.1067,0.1067,0,0.054,0.0564,0.0655,0.0686,0.0727,0.0791,0.0829,0.0904,0.0936,0.1029,0.1043,0.1114,0.1144,0.1137,0.1152,0.1143,0.1125,0.1113,0.1055,0.1059,0.1054,0.1053,0.1051,0.1067,0.1067,0.1067,0.1067,0,0.0503,0.0544,0.0585,0.0654,0.0707,0.0755,0.0821,0.0844,0.0929,0.099,0.1035,0.1066,0.111,0.112,0.114,0.112,0.1114,0.1111,0.111,0.1055,0.1059,0.1054,0.1053,0.1067,0.1067,0.1067,0.1067,0,0.0473,0.0493,0.0556,0.0612,0.0671,0.071,0.0752,0.0805,0.0852,0.0958,0.0974,0.1043,0.1104,0.1111,0.1119,0.1121,0.1089,0.1037,0.1038,0.1039,0.1019,0.1019,0.1017,0,0,0,0,0,0.0439,0.0463,0.0509,0.057,0.0625,0.0664,0.0738,0.078,0.0868,0.0883,0.0931,0.0972,0.1015,0.1045,0.1039,0.11,0.1086,0.1088,0.1024,0.1065,0.1066,0.1046,0,0,0,0,0,0,0.0417,0.0457,0.049,0.0525,0.0557,0.0613,0.066,0.072,0.0735,0.0825,0.0848,0.0921,0.0965,0.1006,0.102,0.1032,0.0976,0.1137,0.1135,0.1065,0.1066,0.1066,0.1046,0,0,0,0,0]},{"header":{"parameterUnit":"m.s-1","parameterCategory":2,"la1":30.2991,"la2":30.254,"lo1":-89.0895,"lo2":-89.0444,"dy":0.0017,"dx":0.0017,"nx":28,"ny":28,"refTime":"2024-08-14T21:00:00:Z","depth":"4","parameterNumber":3,"parameterNumberName":"V-component_of_CURRENTS"},"data":[0,0,0,0,0,0,0,0,0,0,0,0,0,0,0,0,0,0,0,0,0,0,0,0,0,0,0,0,0,0,0,0,0,0,0,0,0,0,0,0,0,0,0,0,0,0,0,0,0,0,0,0,0,0,0,0,0,0,0.0032,0.0032,0,-0.0002,-0.0003,-0.0003,-0.0007,-0.0007,-0.0006,-0.0006,-0.0035,-0.0036,-0.0037,0,0,0,0,0,0,0,0,0,0,0,0,0,0.0058,0.0058,0.0032,0.0032,0.0031,-0.0002,-0.0003,-0.0003,-0.0007,-0.0007,-0.0006,-0.0006,-0.0035,-0.0036,-0.0037,0,0,0,0,0,0,0,0,0,0,0,0,0,0.0038,0.0058,0.0032,0.0025,0.0024,-0.0002,-0.0003,-0.0003,-0.0007,-0.0007,-0.0006,-0.0006,-0.0034,-0.0036,-0.0038,-0.0058,0,0,-0.0043,-0.0043,0,0,0,0,0,0,0,0,0.0039,0.0037,0.0027,0.0026,0.0025,0.0,-0.0004,-0.0021,-0.0007,0.0005,-0.0006,-0.0006,-0.0023,-0.0026,-0.0034,-0.0059,-0.0061,-0.0043,-0.0044,-0.0045,-0.0045,0,0,0,0,0,0,0,0.0041,0.0038,0.0019,0.0026,0.0025,0.0011,0.0009,-0.0008,-0.0012,0.0004,0.0003,-0.0001,-0.0024,-0.0032,-0.0034,-0.0061,-0.0043,-0.0044,-0.0045,-0.0046,-0.0153,-0.0155,0,0,0,0,0,0,0.0046,0.004,0.002,0.0018,0.0033,0.0011,0.0008,0.0007,-0.0012,-0.0014,-0.0001,-0.0001,-0.0029,-0.0032,-0.0035,-0.0097,-0.0044,-0.0046,-0.0047,-0.0151,-0.0153,-0.0155,0,0,0,0,0,0,0.0047,0.0045,0.0021,0.0028,0.0024,0.001,0.0009,0.0006,-0.0003,-0.0015,-0.0018,-0.0008,-0.0029,-0.0033,-0.0061,-0.0097,-0.0047,-0.0048,-0.0149,-0.0152,-0.0154,-0.0198,0,0,0,0,0,0,0.0048,0.0045,0.0046,0.0028,0.0024,-0.0,0.0008,0.0005,-0.0006,-0.0006,-0.0022,-0.0024,-0.0029,-0.0059,-0.0063,-0.0098,-0.005,-0.0146,-0.015,-0.0153,-0.0194,-0.0202,-0.0209,0,0,0,0,0,0.0049,0.0044,0.0046,0.0043,0.0025,-0.0001,-0.0005,-0.0013,-0.0007,-0.0018,-0.0031,-0.0024,-0.0084,-0.0062,-0.0066,-0.0103,-0.0145,-0.0149,-0.0153,-0.0191,-0.02,-0.0208,0,0,0,0,0,0,0.0057,0.0043,0.0044,0.0037,0.0018,-0.0001,-0.0012,-0.0016,-0.0035,-0.0035,-0.0041,-0.0045,-0.0088,-0.0089,-0.0064,-0.0146,-0.0117,-0.0122,-0.0144,-0.0153,-0.016,-0.0146,-0.0051,0,0,0,0,0,0.0059,0.0051,0.0035,0.0028,0.0019,0.0004,-0.0006,-0.0015,-0.0033,-0.0041,-0.0055,-0.0077,-0.0111,-0.0123,-0.0149,-0.0186,-0.0185,-0.0216,-0.0223,-0.0229,-0.0223,-0.0261,-0.0271,-0.0169,-0.0169,-0.0169,0,0,0.006,0.0051,0.0047,0.0029,0.0015,-0.0003,-0.0001,-0.0023,-0.0042,-0.0042,-0.0075,-0.0102,-0.0127,-0.0175,-0.0195,-0.0177,-0.026,-0.0234,-0.0239,-0.0229,-0.0266,-0.0276,-0.0285,-0.0172,-0.0171,-0.0171,0,0,0.005,0.005,0.0037,0.0022,-0.0001,-0.0013,-0.0019,-0.0046,-0.0062,-0.0098,-0.0112,-0.0156,-0.0194,-0.0227,-0.0246,-0.0307,-0.0299,-0.0323,-0.0345,-0.0383,-0.0391,-0.0398,-0.0413,-0.0421,-0.0324,-0.0324,-0.0324,0,0.005,0.0039,0.0027,0.001,0.0,-0.0017,-0.0033,-0.0057,-0.0092,-0.0111,-0.0113,-0.0196,-0.022,-0.0283,-0.0312,-0.0323,-0.0332,-0.0307,-0.0391,-0.0398,-0.0404,-0.0418,-0.0426,-0.0327,-0.0326,-0.0326,-0.0326,0,0.0029,0.0022,0.0012,-0.0011,-0.0026,-0.0045,-0.0073,-0.0098,-0.0118,-0.0144,-0.0209,-0.0252,-0.0297,-0.0329,-0.0339,-0.041,-0.0398,-0.0396,-0.0363,-0.0417,-0.0428,-0.0436,-0.033,-0.0329,-0.0329,-0.0328,0,0,0.0018,0.0002,-0.0003,-0.0006,-0.0036,-0.0051,-0.0086,-0.0125,-0.0147,-0.0201,-0.0239,-0.0322,-0.0345,-0.0368,-0.0401,-0.0442,-0.0508,-0.0441,-0.0442,-0.0445,-0.0579,-0.0535,-0.0539,-0.0522,-0.0523,-0.0525,-0.0569,0,0.0004,-0.0014,-0.0025,-0.0045,-0.0055,-0.0075,-0.0103,-0.0141,-0.0178,-0.0221,-0.0283,-0.0333,-0.036,-0.0389,-0.044,-0.0489,-0.0531,-0.0495,-0.0535,-0.0536,-0.0482,-0.0547,-0.053,-0.0575,-0.0576,-0.0578,-0.0579,0,-0.0018,-0.0023,-0.0037,-0.0049,-0.0057,-0.0074,-0.011,-0.0139,-0.0202,-0.0232,-0.0293,-0.0334,-0.0415,-0.0424,-0.0528,-0.0504,-0.0547,-0.0581,-0.0583,-0.0527,-0.0506,-0.0511,-0.0592,-0.0591,-0.059,-0.0589,-0.0588,0,-0.0016,-0.0034,-0.0039,-0.0044,-0.0065,-0.0079,-0.0095,-0.0146,-0.0165,-0.0238,-0.0258,-0.0353,-0.0393,-0.0471,-0.0544,-0.0543,-0.0641,-0.0644,-0.0642,-0.0639,-0.0642,-0.0634,-0.0718,-0.0718,-0.0718,-0.0718,-0.0717,0,-0.0023,-0.0031,-0.0035,-0.0038,-0.0047,-0.0068,-0.009,-0.012,-0.0162,-0.018,-0.0261,-0.029,-0.0409,-0.0475,-0.0545,-0.0611,-0.0643,-0.0653,-0.0655,-0.066,-0.0654,-0.0647,-0.0638,-0.0719,-0.0719,-0.0718,-0.0718,0,-0.0024,-0.0027,-0.0032,-0.0043,-0.0044,-0.0052,-0.0067,-0.0081,-0.0123,-0.0146,-0.0165,-0.0253,-0.0337,-0.0439,-0.0557,-0.0597,-0.0672,-0.0686,-0.0672,-0.067,-0.0643,-0.0637,-0.0695,-0.0694,-0.0693,-0.0692,-0.0692,0,-0.0026,-0.0027,-0.0025,-0.0018,-0.0022,-0.003,-0.0031,-0.0061,-0.0067,-0.0113,-0.0118,-0.0205,-0.0268,-0.0388,-0.0509,-0.0635,-0.0649,-0.0682,-0.0684,-0.0649,-0.0645,-0.064,-0.0634,-0.069,-0.069,-0.069,-0.069,0,-0.0029,-0.0028,-0.0024,-0.0002,0.0004,0.0011,0.0011,0.0017,-0.0009,-0.0044,-0.0062,-0.014,-0.0229,-0.0353,-0.0452,-0.0544,-0.0661,-0.0673,-0.0676,-0.0679,-0.0644,-0.064,-0.0636,-0.0687,-0.0687,-0.0688,-0.0688,0,-0.003,-0.0023,-0.0008,0.0012,0.0029,0.0053,0.0048,0.0054,0.0048,0.0012,0.0009,-0.0098,-0.0172,-0.0306,-0.0398,-0.0486,-0.051,-0.0528,-0.0539,-0.0544,-0.0489,-0.0423,-0.0406,0,0,0,0,0,-0.0032,-0.0014,0.0008,0.0035,0.0058,0.0068,0.0079,0.0073,0.006,0.0069,0.0045,-0.003,-0.0164,-0.0242,-0.0318,-0.0402,-0.0542,-0.0494,-0.0572,-0.067,-0.0674,-0.0632,0,0,0,0,0,0,-0.0032,-0.0012,0.001,0.0057,0.0083,0.0107,0.0117,0.0109,0.0111,0.009,0.0018,-0.0029,-0.0172,-0.0111,-0.0311,-0.0345,-0.0398,-0.0571,-0.0572,-0.0668,-0.0671,-0.0674,-0.0633,0,0,0,0,0]}]]